Bangor, ME

2:58 PM EDT on August 24, 2016 (GMT -0400)
Bangor International

Weather History for KBGR - September, 2013

Change the Weather History Date:

Tuesday, September 3, 2013

  Actual Average Record
Temperature  
Mean Temperature 71 °F 63 °F  
Max Temperature 78 °F 74 °F 94 °F (1937)
Min Temperature 64 °F 52 °F 37 °F (1926)
Degree Days  
Heating Degree Days 0 3  
Month to date heating degree days 0 9  
Since 1 July heating degree days 32 72  
Cooling Degree Days 6 2  
Month to date cooling degree days 16 6  
Year to date cooling degree days 338 300  
Growing Degree Days 20 (Base 50)    
Moisture  
Dew Point 65 °F    
Average Humidity 85    
Maximum Humidity 100    
Minimum Humidity 69    
Precipitation  
Precipitation 0.01 in 0.11 in 1.86 in (1972)
Month to date precipitation 4.35 0.32  
Year to date precipitation 29.53 26.57  
Snow  
Snow 0.00 in 0.00 in 0.00 in (2002)
Month to date snowfall 0.0 0.0  
Since 1 July snowfall 0.0 0.0  
Since 1 September snowfall 0.0 0.0  
Snow Depth 0.00 in    
Sea Level Pressure  
Sea Level Pressure 29.73 in    
Wind  
Wind Speed 3 mph (South)    
Max Wind Speed 16 mph    
Max Gust Speed 21 mph    
Visibility 6 miles    
Events Fog , Rain    
T = Trace of Precipitation, MM = Missing Value Source: NWS Daily Summary

Daily Weather History Graph

Daily Weather History Graph

Search for Another Location

Airport or City:

Trip Planner

Search our weather history database for the weather conditions in past years. The results will help you decide how hot, cold, wet, or windy it might be!

Date:

Astronomy

Sep. 03, 2013 Rise Set
Actual Time 6:00 AM EDT 7:08 PM EDT
Civil Twilight 5:30 AM EDT 7:38 PM EDT
Nautical Twilight 4:54 AM EDT 8:13 PM EDT
Astronomical Twilight 4:15 AM EDT 8:51 PM EDT
Moon 4:08 AM EDT (9/3) 5:54 PM EDT (9/3)
Length of Visible Light 14h 07m
Length of Day
13h 07m
Waning Crescent, 3% of the Moon is Illuminated
Sep 3
Waning Crescent
Sep 5
New
Sep 12
First Quarter
Sep 19
Full
Sep 26
Last Quarter

Hourly Weather History & Observations

Time (EDT) Temp. Dew Point Humidity Pressure Visibility Wind Dir Wind Speed Gust Speed Precip Events Conditions
12:14 AM 64.4 °F 62.6 °F 94% 29.76 in 1.8 mi Variable 3.5 mph - 0.10 in Rain Heavy Rain
12:24 AM 64.4 °F 62.6 °F 94% 29.75 in 2.5 mi Calm Calm - 0.16 in Rain Heavy Rain
12:29 AM 64.4 °F 62.6 °F 94% 29.75 in 5.0 mi Calm Calm - 0.16 in Rain Light Rain
12:41 AM 64.4 °F 62.6 °F 94% 29.75 in 1.8 mi Calm Calm - 0.27 in Rain Heavy Rain
12:53 AM 64.9 °F 64.0 °F 97% 29.75 in 1.8 mi West 3.5 mph - 0.65 in Rain Heavy Rain
12:57 AM 64.4 °F 64.4 °F 100% 29.75 in 2.0 mi Calm Calm - 0.00 in Rain Light Rain
1:01 AM 64.4 °F 64.4 °F 100% 29.75 in 5.0 mi Calm Calm - 0.00 in Rain Light Rain
1:53 AM 64.9 °F 64.0 °F 97% 29.73 in 7.0 mi East 3.5 mph - 0.00 in   Overcast
2:27 AM 64.4 °F 64.4 °F 100% 29.73 in 2.5 mi Calm Calm - N/A   Overcast
2:49 AM 64.4 °F 64.4 °F 100% 29.73 in 1.8 mi Calm Calm - N/A   Overcast
2:53 AM 64.9 °F 64.0 °F 97% 29.72 in 2.0 mi Calm Calm - N/A   Overcast
3:09 AM 64.4 °F 64.4 °F 100% 29.72 in 1.0 mi Calm Calm - N/A   Overcast
3:53 AM 64.9 °F 64.0 °F 97% 29.71 in 0.8 mi Calm Calm - N/A   Mist
4:53 AM 66.0 °F 64.0 °F 93% 29.70 in 0.5 mi Calm Calm - N/A Fog Fog
5:14 AM 66.2 °F 64.4 °F 94% 29.71 in 0.5 mi Calm Calm - N/A Fog Fog
5:53 AM 66.0 °F 64.9 °F 96% 29.71 in 0.5 mi Calm Calm - 0.01 in Fog Fog
6:22 AM 66.2 °F 64.4 °F 94% 29.72 in 0.2 mi Calm Calm - N/A Fog Fog
6:53 AM 66.0 °F 64.9 °F 96% 29.73 in 0.2 mi Calm Calm - N/A Fog Fog
7:21 AM 66.2 °F 64.4 °F 94% 29.74 in 0.8 mi Calm Calm - N/A   Mist
7:44 AM 66.2 °F 64.4 °F 94% 29.75 in 2.0 mi Calm Calm - N/A   Overcast
7:53 AM 66.0 °F 64.9 °F 96% 29.75 in 3.0 mi SW 3.5 mph - N/A   Overcast
8:53 AM 66.9 °F 64.9 °F 93% 29.76 in 3.0 mi SW 3.5 mph - N/A   Overcast
8:54 AM 66.2 °F 64.4 °F 94% 29.76 in 1.5 mi SW 3.5 mph - N/A   Overcast
9:43 AM 68.0 °F 66.2 °F 94% 29.77 in 6.0 mi West 4.6 mph - N/A   Overcast
9:53 AM 68.0 °F 64.9 °F 90% 29.76 in 6.0 mi Calm Calm - N/A   Overcast
10:46 AM 69.8 °F 66.2 °F 88% 29.76 in 10.0 mi Calm Calm - N/A   Overcast
10:53 AM 70.0 °F 64.9 °F 84% 29.75 in 10.0 mi WSW 3.5 mph - N/A   Overcast
11:30 AM 73.4 °F 66.2 °F 78% 29.75 in 10.0 mi Variable 3.5 mph - N/A   Mostly Cloudy
11:53 AM 73.9 °F 66.0 °F 76% 29.74 in 10.0 mi Calm Calm - N/A   Mostly Cloudy
12:53 PM 73.9 °F 66.0 °F 76% 29.72 in 10.0 mi South 3.5 mph - N/A   Mostly Cloudy
1:24 PM 75.2 °F 66.2 °F 73% 29.72 in 10.0 mi South 6.9 mph - N/A   Scattered Clouds
1:53 PM 77.0 °F 66.9 °F 71% 29.71 in 10.0 mi South 6.9 mph - N/A   Scattered Clouds
2:16 PM 75.2 °F 66.2 °F 73% 29.71 in 10.0 mi SSE 8.1 mph - N/A   Mostly Cloudy
2:53 PM 77.0 °F 66.9 °F 71% 29.70 in 10.0 mi South 9.2 mph - N/A   Mostly Cloudy
3:53 PM 77.0 °F 66.9 °F 71% 29.68 in 10.0 mi South 9.2 mph - N/A   Mostly Cloudy
4:00 PM 77.0 °F 68.0 °F 74% 29.69 in 10.0 mi South 10.4 mph - N/A   Mostly Cloudy
4:53 PM 73.9 °F 66.9 °F 79% 29.68 in 10.0 mi South 11.5 mph - N/A   Mostly Cloudy
5:53 PM 72.0 °F 66.0 °F 81% 29.67 in 10.0 mi South 11.5 mph - N/A   Overcast
6:53 PM 70.0 °F 66.0 °F 87% 29.69 in 10.0 mi South 11.5 mph - N/A   Overcast
7:53 PM 69.1 °F 66.0 °F 90% 29.70 in 10.0 mi South 9.2 mph - N/A   Overcast
8:53 PM 68.0 °F 64.9 °F 90% 29.72 in 10.0 mi South 5.8 mph - N/A   Mostly Cloudy
9:29 PM 68.0 °F 64.4 °F 88% 29.72 in 10.0 mi South 3.5 mph - 0.00 in   Overcast
9:53 PM 66.9 °F 64.9 °F 93% 29.71 in 10.0 mi South 3.5 mph - 0.00 in   Overcast
10:53 PM 66.9 °F 64.9 °F 93% 29.71 in 10.0 mi South 3.5 mph - N/A   Overcast
11:09 PM 66.2 °F 64.4 °F 94% 29.72 in 10.0 mi SSW 4.6 mph - N/A   Overcast
11:53 PM 66.9 °F 66.0 °F 97% 29.71 in 7.0 mi South 3.5 mph - N/A   Overcast